| time (UTC) | temp C | wind direction | speed KPH | gust KPH | rain 1hr cm | rain 24hr cm | rain mn cm | humidity % | barometer mb |
| 20260502194811 | 13 | 266 | 1.6 | 8.0 | 0.00 | 2.01 | 0.51 | 93 | 1011.2 |
| 20260502194313 | 13 | 260 | 3.2 | 8.0 | 0.00 | 2.01 | 0.51 | 93 | 1011.1 |
| 20260502193815 | 13 | 236 | 1.6 | 6.4 | 0.00 | 2.01 | 0.51 | 93 | 1011.2 |
| 20260502193326 | 13 | 340 | 1.6 | 4.8 | 0.00 | 2.01 | 0.51 | 93 | 1011.1 |
| 20260502192833 | 13 | 273 | 0.0 | 1.6 | 0.00 | 2.01 | 0.51 | 93 | 1011.1 |
| 20260502192334 | 13 | 283 | 0.0 | 1.6 | 0.00 | 2.01 | 0.51 | 93 | 1011.1 |
| 20260502191815 | 13 | 283 | 0.0 | 1.6 | 0.00 | 2.01 | 0.51 | 93 | 1011.1 |
| 20260502191325 | 13 | 284 | 0.0 | 1.6 | 0.00 | 2.01 | 0.51 | 93 | 1011.1 |
| 20260502190827 | 13 | 283 | 0.0 | 1.6 | 0.00 | 2.01 | 0.51 | 93 | 1011.1 |
| 20260502190337 | 13 | 285 | 0.0 | 1.6 | 0.00 | 2.01 | 0.51 | 93 | 1011.1 |
| 20260502185817 | 13 | 226 | 0.0 | 1.6 | 0.00 | 2.01 | 0.51 | 93 | 1011.2 |
| 20260502185320 | 13 | 218 | 0.0 | 1.6 | 0.00 | 2.01 | 0.51 | 93 | 1011.1 |
| 20260502184827 | 13 | 285 | 0.0 | 1.6 | 0.00 | 2.01 | 0.51 | 93 | 1011.2 |
| 20260502184328 | 13 | 286 | 0.0 | 1.6 | 0.00 | 2.01 | 0.51 | 93 | 1011.2 |
| 20260502183832 | 13 | 287 | 0.0 | 1.6 | 0.00 | 2.01 | 0.51 | 93 | 1011.2 |
| 20260501215322 | 11 | 290 | 0.0 | 1.6 | 0.00 | 0.00 | 0.00 | 88 | 1019.6 |
| 20260501214844 | 11 | 290 | 0.0 | 1.6 | 0.00 | 0.00 | 0.00 | 88 | 1019.7 |
| 20260501214332 | 11 | 290 | 0.0 | 1.6 | 0.00 | 0.00 | 0.00 | 88 | 1019.6 |
| 20260501213814 | 12 | 290 | 0.0 | 1.6 | 0.00 | 0.00 | 0.00 | 88 | 1019.6 |
| 20260501212912 | 12 | 309 | 0.0 | 0.0 | 0.00 | 0.00 | 0.00 | 88 | 1019.6 |
| 20260501212336 | 12 | 309 | 0.0 | 0.0 | 0.00 | 0.00 | 0.00 | 87 | 1019.6 |
| 20260501211818 | 12 | 310 | 0.0 | 1.6 | 0.00 | 0.00 | 0.00 | 87 | 1019.5 |
| 20260501211320 | 12 | 296 | 0.0 | 0.0 | 0.00 | 0.00 | 0.00 | 86 | 1019.4 |
| 20260501210822 | 12 | 297 | 0.0 | 0.0 | 0.00 | 0.00 | 0.00 | 86 | 1019.3 |
| 20260501210332 | 12 | 296 | 0.0 | 1.6 | 0.00 | 0.00 | 0.00 | 86 | 1019.4 |
| 20260501205812 | 12 | 296 | 0.0 | 1.6 | 0.00 | 0.00 | 0.00 | 86 | 1019.5 |
| 20260501205320 | 12 | 301 | 0.0 | 1.6 | 0.00 | 0.00 | 0.00 | 85 | 1019.5 |
| 20260501204821 | 12 | 302 | 0.0 | 1.6 | 0.00 | 0.00 | 0.00 | 85 | 1019.5 |
| 20260501204323 | 12 | 311 | 0.0 | 1.6 | 0.00 | 0.00 | 0.00 | 85 | 1019.5 |
| 20260501203832 | 12 | 311 | 0.0 | 1.6 | 0.00 | 0.00 | 0.00 | 85 | 1019.6 |
| 20260501203315 | 13 | 18 | 0.0 | 1.6 | 0.00 | 0.00 | 0.00 | 84 | 1019.5 |
| 20260501202816 | 13 | 18 | 0.0 | 3.2 | 0.00 | 0.00 | 0.00 | 84 | 1019.5 |
| 20260501202318 | 13 | 323 | 0.0 | 3.2 | 0.00 | 0.00 | 0.00 | 84 | 1019.6 |
| 20260501201827 | 13 | 345 | 0.0 | 3.2 | 0.00 | 0.00 | 0.00 | 84 | 1019.6 |
| 20260501201329 | 13 | 295 | 0.0 | 1.6 | 0.00 | 0.00 | 0.00 | 84 | 1019.6 |
| 20260501200811 | 13 | 347 | 0.0 | 1.6 | 0.00 | 0.00 | 0.00 | 83 | 1019.4 |
| 20260501200321 | 13 | 341 | 0.0 | 1.6 | 0.00 | 0.00 | 0.00 | 83 | 1019.5 |
| 20260501195330 | 13 | 347 | 0.0 | 3.2 | 0.00 | 0.00 | 0.00 | 83 | 1019.4 |